sat.trackr.live / text

‹ back to catalog

NIMIQ 2

NORAD 27632 · 2002-062A

PAYLOAD ACTIVE UNKNOWN

§ Identity

Operator
Country
CA
Launch date
2002-12-29
Launch site
TYMSC
Launch vehicle
Mass (kg)
RCS (m²)
111.29

Purposes: comms

External: N2YO · Heavens-Above · Gunter

§ Orbital elements

Epoch: 2026-09-11T23:42:03.487104Z

Period
1,436.15 min
Inclination
9.6425°
Eccentricity
0.0005605
Mean motion
1.00267752 rev/d
Perigee alt
35,764.1 km
Apogee alt
35,811.4 km
Semi-major
42,165.9 km
B*
0.0000e+0
RAAN
55.9501°
Arg perigee
112.5035°
Mean anomaly
68.8471°
Rev number
4,505

§ Raw data

NIMIQ 21 27632U 02062A   26254.98754036 -.00000080  00000+0  00000+0 0  99982 27632   9.6425  55.9501 0005605 112.5035  68.8471  1.00267752 45054

JSON: /api/v1/satellites/27632 · /tle

For live sub-satellite position, see the globe view (requires WebGL).

§ Visibility from observer

Set your observer location to see the next 7 days of passes ≥ 10°. The values pass through the URL so the page stays shareable.

No JS? Fill the form by hand. The geolocation button needs JavaScript.